Total_Precipitation_Accumulation
1.84 2.22 2.55 2.99 3.43 3.94 4.65 5.23 5.58 5.51 5.28 4.92 4.53 4.22 3.74 3.42 3.13 2.81 2.57 2.34 2.08 1.98 2.20 2.05 2.25 2.18 2.05 1.89 1.86 1.95 1.95 1.72 1.98 2.18 1.76 1.33 1.11 1.00 0.86 0.85 0.91 0.85 0.91
1.78 2.11 2.61 2.91 3.23 3.71 4.20 4.60 4.54 4.21 4.07 4.01 3.89 3.62 3.64 3.50 3.32 3.09 2.84 2.45 2.24 2.05 1.90 2.00 1.88 1.84 1.90 1.70 1.59 1.75 1.75 1.53 1.81 1.93 1.89 1.40 1.19 0.99 0.69 0.74 0.75 0.84 1.03
1.41 1.73 2.27 2.58 2.74 3.12 3.42 3.47 3.35 3.13 3.13 3.17 3.09 3.14 3.39 3.44 3.38 3.21 2.95 2.66 2.49 2.33 2.16 1.99 1.80 1.75 1.63 1.61 1.57 1.63 1.65 1.56 1.53 1.59 1.74 1.43 1.14 0.97 0.68 0.59 0.67 0.90 1.14
1.16 1.44 1.77 1.96 2.18 2.34 2.49 2.53 2.58 2.57 2.54 2.56 2.49 2.40 2.47 2.62 2.83 3.06 3.10 3.08 2.86 2.59 2.30 2.10 1.86 1.63 1.48 1.59 1.34 1.42 1.62 1.68 1.44 1.40 1.38 1.31 1.41 1.39 1.06 0.73 0.64 0.87 1.02
1.17 1.39 1.47 1.56 1.64 1.63 1.77 1.86 2.13 2.40 2.46 2.45 2.52 2.42 2.19 2.16 2.20 2.33 2.47 2.49 2.50 2.37 2.10 1.97 1.86 1.61 1.41 1.39 1.37 1.54 1.52 1.50 1.40 1.42 1.41 1.48 1.59 1.45 1.34 1.08 0.95 0.96 0.88
0.90 1.12 1.34 1.38 1.33 1.27 1.43 1.65 1.94 2.30 2.49 2.53 2.49 2.41 2.33 2.28 2.16 2.11 2.12 2.01 2.03 2.01 1.90 1.78 1.75 1.58 1.42 1.40 1.36 1.44 1.49 1.53 1.57 1.55 1.51 1.57 1.53 1.51 1.65 1.45 1.24 1.15 0.96
0.66 0.67 0.83 1.04 1.03 1.00 1.12 1.38 1.55 1.79 1.97 2.09 2.10 2.01 2.12 2.24 2.10 1.95 1.83 1.73 1.61 1.56 1.60 1.68 1.71 1.56 1.47 1.49 1.58 1.56 1.48 1.54 1.61 1.56 1.62 1.67 1.60 1.68 1.81 1.76 1.50 1.37 1.26
0.45 0.43 0.48 0.61 0.82 0.84 0.87 0.97 1.21 1.37 1.54 1.66 1.77 1.87 2.03 2.15 2.10 2.23 2.01 1.83 1.57 1.46 1.51 1.68 1.72 1.61 1.52 1.46 1.65 1.60 1.59 1.66 1.64 1.56 1.78 1.82 1.64 1.81 2.02 2.09 2.06 1.84 1.74
0.34 0.33 0.40 0.59 0.60 0.59 0.62 0.73 0.94 1.06 1.24 1.43 1.61 1.68 1.65 1.67 1.80 1.97 1.96 1.81 1.74 1.59 1.65 1.70 1.80 1.85 1.87 1.83 1.86 1.74 1.76 1.92 1.92 1.86 1.95 1.96 1.85 1.90 2.00 2.17 2.29 2.28 2.17
0.34 0.32 0.35 0.43 0.43 0.41 0.53 0.73 0.86 0.89 1.17 1.48 1.64 1.54 1.51 1.42 1.56 1.63 1.67 1.73 1.71 1.70 1.73 1.71 1.74 1.84 1.88 1.88 1.96 1.93 1.99 2.15 2.13 2.17 2.25 2.18 1.98 2.02 2.06 2.14 2.31 2.49 2.51
0.38 0.37 0.37 0.38 0.45 0.40 0.47 0.63 0.78 0.93 1.19 1.50 1.68 1.64 1.49 1.46 1.56 1.49 1.47 1.60 1.66 1.66 1.70 1.68 1.63 1.60 1.69 1.85 2.01 2.00 2.11 2.21 2.24 2.22 2.16 2.08 2.10 2.16 2.06 2.12 2.22 2.37 2.53
0.31 0.29 0.26 0.30 0.30 0.29 0.40 0.72 1.06 1.40 1.54 1.77 1.99 1.98 1.68 1.52 1.44 1.29 1.29 1.48 1.66 1.69 1.66 1.64 1.59 1.53 1.61 1.84 1.99 2.09 2.31 2.40 2.30 2.21 2.15 2.04 2.12 2.21 2.14 2.15 2.10 2.15 2.40
0.30 0.30 0.25 0.31 0.27 0.26 0.32 0.49 0.65 0.98 1.29 1.58 1.82 1.77 1.53 1.37 1.32 1.31 1.35 1.51 1.63 1.62 1.58 1.60 1.64 1.74 1.86 2.02 2.15 2.25 2.39 2.37 2.25 2.23 2.14 2.02 2.05 2.04 2.11 2.15 2.11 2.06 2.10
0.37 0.35 0.32 0.29 0.28 0.30 0.30 0.40 0.49 0.57 0.76 1.14 1.40 1.41 1.29 1.23 1.25 1.32 1.34 1.33 1.35 1.41 1.46 1.64 1.86 2.02 2.13 2.21 2.27 2.27 2.23 2.21 2.10 2.01 1.91 1.87 1.95 2.00 2.02 1.95 1.92 1.93 2.00
0.38 0.36 0.35 0.40 0.42 0.46 0.42 0.42 0.46 0.51 0.66 1.04 1.25 1.22 1.20 1.20 1.17 1.17 1.24 1.30 1.36 1.43 1.62 1.78 1.88 1.89 1.93 2.00 2.13 2.13 2.08 2.03 1.93 1.82 1.63 1.59 1.78 1.86 1.86 1.73 1.80 1.86 1.89
0.40 0.38 0.32 0.40 0.48 0.50 0.50 0.49 0.49 0.54 0.67 0.93 1.14 1.15 1.13 1.11 1.05 1.09 1.19 1.36 1.46 1.61 1.77 1.80 1.77 1.71 1.47 1.54 1.65 1.72 1.75 1.74 1.68 1.56 1.49 1.50 1.54 1.48 1.45 1.44 1.43 1.50 1.59
0.39 0.32 0.34 0.47 0.66 0.60 0.58 0.62 0.59 0.59 0.72 0.91 1.06 1.16 1.14 1.15 1.13 1.12 1.29 1.47 1.63 1.77 1.88 1.86 1.76 1.64 1.58 1.47 1.34 1.33 1.38 1.48 1.50 1.51 1.57 1.38 1.25 1.34 1.32 1.36 1.31 1.24 1.29
0.47 0.46 0.44 0.50 0.58 0.57 0.60 0.66 0.66 0.67 0.77 0.95 1.14 1.22 1.17 1.22 1.32 1.35 1.44 1.66 1.88 2.01 2.01 1.94 1.84 1.80 1.75 1.64 1.41 1.30 1.25 1.41 1.47 1.47 1.51 1.50 1.43 1.42 1.48 1.49 1.40 1.27 1.22
0.58 0.61 0.65 0.62 0.66 0.70 0.71 0.72 0.78 0.81 0.90 0.97 1.12 1.21 1.28 1.39 1.45 1.51 1.68 1.89 2.06 2.07 2.00 2.03 1.99 1.96 1.98 1.80 1.46 1.29 1.29 1.49 1.53 1.52 1.50 1.48 1.44 1.48 1.35 1.29 1.30 1.29 1.26
0.66 0.65 0.72 0.76 0.80 0.84 0.89 0.89 0.95 1.06 1.20 1.28 1.33 1.51 1.70 1.88 1.98 2.04 2.10 2.13 2.18 2.08 2.04 2.04 2.06 2.02 2.02 1.91 1.44 1.23 1.26 1.46 1.51 1.58 1.56 1.46 1.33 1.30 1.17 1.15 1.28 1.27 1.25
0.61 0.65 0.68 0.77 0.81 0.85 0.98 1.13 1.20 1.30 1.42 1.55 1.62 1.82 2.14 2.33 2.33 2.33 2.28 2.21 2.21 2.21 2.18 2.11 2.09 2.06 2.00 1.92 1.51 1.32 1.35 1.51 1.61 1.61 1.58 1.52 1.38 1.18 1.12 1.06 1.10 1.14 1.13
0.56 0.61 0.67 0.73 0.85 0.98 1.20 1.46 1.54 1.50 1.58 1.74 1.92 2.13 2.38 2.36 2.28 2.45 2.39 2.36 2.41 2.37 2.27 2.20 2.13 2.12 2.07 1.91 1.62 1.38 1.44 1.58 1.70 1.77 1.73 1.63 1.41 1.17 1.07 0.98 0.95 0.91 0.85
0.55 0.61 0.67 0.79 0.90 1.11 1.47 1.73 1.76 1.82 1.85 1.95 2.07 2.16 2.27 2.46 2.61 2.67 2.59 2.51 2.48 2.42 2.25 2.15 2.02 1.96 2.01 2.02 1.60 1.34 1.40 1.49 1.53 1.70 1.73 1.46 1.23 1.08 0.93 0.89 0.88 0.78 0.73
0.57 0.64 0.73 0.89 1.08 1.26 1.56 1.71 1.75 1.81 1.87 1.87 1.83 1.91 2.08 2.24 2.33 2.57 2.63 2.54 2.39 2.34 2.28 2.16 2.02 1.95 1.98 1.98 1.65 1.33 1.31 1.38 1.37 1.46 1.52 1.39 1.21 1.07 0.96 0.90 0.86 0.80 0.81
0.58 0.69 0.81 0.92 1.04 1.20 1.38 1.47 1.64 1.74 1.84 1.80 1.71 1.71 1.72 1.83 1.93 2.04 2.16 2.17 2.18 2.02 1.91 1.79 1.73 1.73 1.78 1.75 1.50 1.32 1.32 1.43 1.49 1.45 1.47 1.48 1.35 1.21 1.10 1.07 1.10 1.10 1.05
0.59 0.71 0.84 0.95 1.05 1.19 1.38 1.45 1.58 1.67 1.71 1.66 1.58 1.58 1.58 1.64 1.72 1.76 1.72 1.57 1.52 1.37 1.23 1.19 1.14 1.16 1.21 1.31 1.16 1.05 1.14 1.29 1.35 1.28 1.31 1.42 1.41 1.33 1.25 1.19 1.19 1.17 1.11